UZB777 UZTT-UCFM

Flight info

Callsign UZB777
Flight time N/A
Altitude 37000
Route TISIB2A TISIB L143 RUDEK M34 GASTA JETTO1
Aircraft A320/M-SDE3FGHIRWY/LB1

Departure

Time N/A
Airport Tashkent International Airport (UZTT)

Arrival

Time 2026-04-25 16:42
Airport Manas International Airport (UCFM)
Time Latitude Longitude Altitude Speed Heading
2026-04-25 16:20 42.05212 72.70116 28018 ft 447 kts 63°
2026-04-25 16:20 42.06641 72.73856 27766 ft 446 kts 63°
2026-04-25 16:20 42.09545 72.81476 27250 ft 442 kts 63°
2026-04-25 16:21 42.11017 72.85345 26986 ft 440 kts 63°
2026-04-25 16:21 42.12446 72.89110 26729 ft 438 kts 63°
2026-04-25 16:21 42.13887 72.92907 26468 ft 436 kts 63°
2026-04-25 16:21 42.15328 72.96709 26206 ft 434 kts 63°
2026-04-25 16:22 42.16798 73.00593 25937 ft 432 kts 63°
2026-04-25 16:22 42.18252 73.04442 25669 ft 430 kts 63°
2026-04-25 16:22 42.19683 73.08237 25404 ft 427 kts 63°
2026-04-25 16:22 42.21055 73.11877 25149 ft 426 kts 63°
2026-04-25 16:23 42.22395 73.15427 24898 ft 424 kts 63°
2026-04-25 16:23 42.23723 73.18948 24649 ft 422 kts 63°
2026-04-25 16:23 42.25052 73.22476 24399 ft 420 kts 63°
2026-04-25 16:23 42.26362 73.25955 24151 ft 418 kts 63°
2026-04-25 16:24 42.27689 73.29487 23898 ft 416 kts 63°
2026-04-25 16:24 42.28995 73.32969 23647 ft 415 kts 63°
2026-04-25 16:24 42.30285 73.36410 23398 ft 413 kts 63°
2026-04-25 16:24 42.31576 73.39856 23142 ft 411 kts 63°
2026-04-25 16:25 42.32861 73.43292 22876 ft 409 kts 63°
2026-04-25 16:25 42.33711 73.45566 22681 ft 408 kts 63°
2026-04-25 16:25 42.35415 73.50135 22157 ft 405 kts 63°
2026-04-25 16:25 42.36660 73.53476 21720 ft 402 kts 63°
2026-04-25 16:26 42.37958 73.56834 21246 ft 399 kts 57°
2026-04-25 16:26 42.39810 73.59556 20744 ft 395 kts 34°
2026-04-25 16:26 42.42279 73.61101 20282 ft 389 kts 11°
2026-04-25 16:26 42.45020 73.61296 19807 ft 382 kts 352°
2026-04-25 16:27 42.47619 73.60840 19356 ft 379 kts 349°
2026-04-25 16:27 42.50236 73.60319 18896 ft 376 kts 349°
2026-04-25 16:27 42.52822 73.59815 18444 ft 374 kts 350°
2026-04-25 16:27 42.55387 73.59337 17994 ft 371 kts 351°
2026-04-25 16:28 42.57903 73.58881 17549 ft 369 kts 351°
2026-04-25 16:28 42.60445 73.58429 17101 ft 367 kts 351°
2026-04-25 16:28 42.63096 73.57963 16629 ft 365 kts 351°
2026-04-25 16:28 42.65769 73.57494 16087 ft 365 kts 351°
2026-04-25 16:29 42.68380 73.57037 15558 ft 364 kts 351°
2026-04-25 16:29 42.70879 73.56599 15098 ft 362 kts 351°
2026-04-25 16:29 42.73341 73.56168 14659 ft 360 kts 351°
2026-04-25 16:29 42.75801 73.55737 14438 ft 349 kts 351°
2026-04-25 16:30 42.78130 73.55332 14322 ft 321 kts 353°
2026-04-25 16:30 42.80286 73.55500 14129 ft 312 kts 18°
2026-04-25 16:30 42.82144 73.56960 14043 ft 306 kts 44°
2026-04-25 16:30 42.83349 73.59332 13449 ft 311 kts 69°
2026-04-25 16:31 42.84059 73.62109 12937 ft 313 kts 72°
2026-04-25 16:31 42.84732 73.64951 12442 ft 315 kts 72°
2026-04-25 16:31 42.85411 73.67774 12064 ft 312 kts 72°
2026-04-25 16:31 42.86093 73.70548 11731 ft 307 kts 72°
2026-04-25 16:32 42.86772 73.73274 11391 ft 304 kts 72°
2026-04-25 16:32 42.87456 73.75999 11074 ft 299 kts 72°
2026-04-25 16:32 42.88138 73.78702 10623 ft 300 kts 72°
2026-04-25 16:32 42.88810 73.81368 9934 ft 297 kts 72°
2026-04-25 16:33 42.89474 73.83997 9235 ft 292 kts 72°
2026-04-25 16:33 42.90121 73.86564 8556 ft 288 kts 72°
2026-04-25 16:33 42.90765 73.89117 8121 ft 273 kts 72°
2026-04-25 16:33 42.91358 73.91473 7887 ft 254 kts 72°
2026-04-25 16:34 42.91919 73.93700 7596 ft 241 kts 72°
2026-04-25 16:34 42.92451 73.95821 7272 ft 236 kts 72°
2026-04-25 16:34 42.92985 73.97948 6936 ft 234 kts 72°
2026-04-25 16:34 42.93541 74.00033 6625 ft 233 kts 69°
2026-04-25 16:35 42.94204 74.02081 6356 ft 232 kts 66°
2026-04-25 16:35 42.94899 74.04115 6139 ft 231 kts 66°
2026-04-25 16:35 42.95577 74.06085 6053 ft 228 kts 66°
2026-04-25 16:35 42.96245 74.08032 5806 ft 224 kts 66°
2026-04-25 16:36 42.96900 74.09945 5581 ft 219 kts 66°
2026-04-25 16:36 42.97116 74.10576 5511 ft 218 kts 66°
2026-04-25 16:36 42.98139 74.13568 5364 ft 199 kts 66°
2026-04-25 16:36 42.98717 74.15257 5343 ft 196 kts 66°
2026-04-25 16:37 42.99286 74.16930 5570 ft 195 kts 66°
2026-04-25 16:37 42.99857 74.18605 5661 ft 189 kts 66°
2026-04-25 16:37 43.00426 74.20280 5309 ft 199 kts 66°
2026-04-25 16:37 43.01020 74.22034 4728 ft 211 kts 66°
2026-04-25 16:38 43.01635 74.23850 4334 ft 210 kts 66°
2026-04-25 16:38 43.02258 74.25681 3927 ft 211 kts 66°
2026-04-25 16:38 43.02874 74.27496 3556 ft 210 kts 66°
2026-04-25 16:38 43.03470 74.29253 3388 ft 198 kts 66°
2026-04-25 16:39 43.03902 74.30940 3376 ft 177 kts 76°
2026-04-25 16:39 43.04162 74.32487 3364 ft 157 kts 79°
2026-04-25 16:39 43.04359 74.33940 3363 ft 154 kts 82°
2026-04-25 16:39 43.04539 74.35365 3386 ft 148 kts 82°
2026-04-25 16:40 43.04713 74.36726 3327 ft 143 kts 81°
2026-04-25 16:40 43.04888 74.38057 3104 ft 141 kts 81°
2026-04-25 16:40 43.05049 74.39387 2952 ft 141 kts 82°
2026-04-25 16:40 43.05215 74.40700 2783 ft 141 kts 80°
2026-04-25 16:41 43.05407 74.42059 2539 ft 140 kts 81°
2026-04-25 16:41 43.05572 74.43438 2389 ft 140 kts 81°
2026-04-25 16:41 43.05923 74.46169 2098 ft 126 kts 79°
2026-04-25 16:42 43.06049 74.47123 2098 ft 73 kts 80°
2026-04-25 16:42 43.06114 74.47618 2098 ft 43 kts 81°
2026-04-25 16:42 43.06164 74.48012 2098 ft 39 kts 79°
2026-04-25 16:42 43.06163 74.48343 2098 ft 30 kts 104°
2026-04-25 16:43 43.06099 74.48488 2098 ft 9 kts 146°
2026-04-25 16:43 43.06034 74.48476 2098 ft 10 kts 221°
2026-04-25 16:43 43.06016 74.48395 2098 ft 6 kts 222°
2026-04-25 16:43 43.05995 74.48343 2098 ft 6 kts 261°
2026-04-25 16:44 43.05987 74.48275 2098 ft 7 kts 260°
2026-04-25 16:44 43.05976 74.48201 2098 ft 8 kts 258°
2026-04-25 16:44 43.05966 74.48118 2098 ft 9 kts 260°
2026-04-25 16:44 43.05955 74.48029 2098 ft 9 kts 260°
2026-04-25 16:45 43.05941 74.47931 2098 ft 10 kts 259°
2026-04-25 16:45 43.05928 74.47828 2098 ft 11 kts 261°
2026-04-25 16:45 43.05914 74.47718 2098 ft 12 kts 259°
2026-04-25 16:45 43.05898 74.47604 2098 ft 12 kts 258°
2026-04-25 16:46 43.05883 74.47484 2098 ft 13 kts 260°
2026-04-25 16:46 43.05866 74.47356 2098 ft 13 kts 259°
2026-04-25 16:46 43.05850 74.47227 2098 ft 13 kts 261°
2026-04-25 16:46 43.05841 74.47186 2098 ft 13 kts 241°
2026-04-25 16:47 43.05681 74.47178 2098 ft 14 kts 169°
2026-04-25 16:47 43.05607 74.47131 2098 ft 13 kts 252°
2026-04-25 16:47 43.05590 74.47003 2098 ft 13 kts 260°
2026-04-25 16:47 43.05547 74.46950 2098 ft 8 kts 180°
2026-04-25 16:48 43.05503 74.46959 2098 ft 4 kts 169°
2026-04-25 16:48 43.05495 74.46960 2098 ft 0 kts 169°